Location: Augsburg
(48.3836°N, 10.8929°E)
Time: 04:30:52
(UTC+01:00)

ISS - Pass Details

Date: 12 January 2018
Orbit: 401 x 406 km, 51.6° (Epoch: 17 January)

Event Time Altitude Azimuth Distance (km) Brightness Sun altitude
Exits shadow 04:52:15 12° 88° (E) 1,374 -0.3 -31.2°
Drops below altitude 10° 04:52:28 10° 89° (E) 1,464 -0.1 -31.2°
Sets 04:54:35 0° 95° (E) 2,324 1.2 -30.8°
